Tracking 32991 objects as of 22-Jan-2026
HD Live streaming from Space Station
objects crossing your sky now

CZ-6A DEB

Track CZ-6A DEB now!
10-day predictions


NORAD ID: 55894
Int'l Code: 2022-151AAS
Perigee: 546.6 km
Apogee: 606.3 km
Inclination: 98.6 °
Period: 96.1 minutes
Semi major axis: 6947 km
RCS: Unknown
Launch date: November 11, 2022
Source: People's Republic of China (PRC)
Launch site: Taiyaun Space Center, China (TSC)

Note: This is SATELLITE DEBRIS
Your satellite tracking list
Your tracking list is empty




NASA's NSSDC Master Catalog

Two Line Element Set (TLE):
1 55894U 22151AAS 26021.68183822  .00114150  00000-0  90587-2 0  9994
2 55894  98.6380  95.9768 0042949 326.0111  33.8359 14.99215200164525
Source of the keplerian elements: AFSPC